Regional Weather Roundup
Issued by NWS

Home | Current Version | Previous Version | Text Only | Print | Product List | Glossary On
Versions: 1 2 3 4 5 6 7 8 9 10 11 12 13 14 15 16 17 18 19 20 21 22 23 24 25 26 27 28 29 30 31 32 33 34 35 36 37 38 39 40 41 42 43 44 45 46 47 48 49 50
000
ASUS44 KJAN 251510
RWRMS

MISSISSIPPI HOURLY WEATHER ROUNDUP
NATIONAL WEATHER SERVICE JACKSON MS
1000 AM CDT WED APR 25 2018

NOTE: "FAIR: INDICATES FEW OR NO CLOUDS BELOW 12,000 FEET WITH NO
SIGNIFICANT WEATHER AND/OR OBSTRUCTIONS TO VISIBILITY.

MSZ001>002-007>008-010>013-018>021-025>028-034>036-251600-
NORTHWEST MISSISSIPPI

CITY           SKY/WX    TMP DP  RH WIND       PRES   REMARKS
BATESVILLE       N/A    N/A N/A N/A MISG        N/A
CLARKSDALE     SUNNY     68  61  77 SW5       30.06R
CLEVELAND      FAIR     N/A N/A N/A CALM      30.05S
GREENWOOD      FAIR      68  57  68 CALM      30.05F
GREENVILLE     FAIR      68  56  65 SW6       30.05S
OLIVE BRANCH   MOSUNNY   66  61  82 W6        30.05R
OXFORD         FAIR      66  54  63 CALM      30.06F
TUNICA           N/A     64  57  77 SW5       30.06R
$$

MSZ003>006-009-014>017-022>024-029>033-037>039-251600-
NORTHEAST MISSISSIPPI

CITY           SKY/WX    TMP DP  RH WIND       PRES   REMARKS
ABERDEEN         N/A     66  66 100 VRB3      30.06F
COLUMBUS AFB   FAIR      62  58  88 CALM      30.04F
CORINTH        FAIR      66  55  68 W7        30.04R
GOLDN TRIANGLE FAIR      65  58  78 N5        30.05F
TUPELO         FAIR      67  54  63 VRB6      30.05R
$$

MSZ040-058-251600-
CENTRAL MISSISSIPPI

CITY           SKY/WX    TMP DP  RH WIND       PRES   REMARKS
JACKSON INTL   FAIR      70  53  54 NE3       30.06R
JACKSON HAWKNS FAIR      69  55  60 NW5       30.07S
MADISON        FAIR      68  52  56 CALM      30.06S
MERIDIAN KEY   FAIR      69  54  58 N10       30.05S
MERIDIAN NAS   FAIR      68  54  60 N9G17     30.05S
RAYMOND        FAIR      68  57  68 CALM      30.07S
VICKSBURG VKS  SUNNY     68  57  68 VRB3      30.08S
$$

MSZ059>079-251600-
SOUTH MISSISSIPPI

CITY           SKY/WX    TMP DP  RH WIND       PRES   REMARKS
COLUMBIA       FAIR      68  55  64 N6        30.11F
HATTIESBURG    FAIR      68  56  65 NW7       30.07S
LAUREL         FAIR      67  54  64 NW7       30.07S
MCCOMB         FAIR      71  52  50 N6        30.07S
NATCHEZ        FAIR      71  53  52 SE5       30.08S
PINE BELT      FAIR      69  56  62 VRB5      30.08
$$

MSZ080>082-251600-
COASTAL MISSISSIPPI

CITY           SKY/WX    TMP DP  RH WIND       PRES   REMARKS
BAY ST LOUIS   SUNNY     70  55  60 NW6       30.06F
BILOXI         NOT AVBL
PASCAGOULA     FAIR      70  54  56 NW9       30.05F
GULFPORT       FAIR      70  56  61 NW7       30.04F
$$

LAZ007>009-015>016-023>026-251600-
NORTHEAST LOUISIANA

CITY           SKY/WX    TMP DP  RH WIND       PRES   REMARKS
BASTROP        FAIR      67  58  71 S6        30.08R
TALLULAH/VBURG FAIR      70  60  70 VRB3      30.07F
VIDALIA        FAIR      70  54  56 SE5       30.08S
$$



USA.gov is the U.S. government's official web portal to all federal, state and local government web resources and services.